EHI
2 1 0 0 0 0 0 0 0 0 0 0 0 0 0 0 0 0 0 0 0 0 0 0 0 0 0 0 0 0 0 0 0 0 0 0 0 0 0 0 0 0 0
2 1 0 0 0 0 0 0 0 0 0 0 0 0 0 0 0 0 0 0 0 0 0 0 0 0 0 0 0 0 0 0 0 0 0 0 0 0 0 0 0 0 0
1 0 0 0 0 0 0 0 0 0 0 0 0 0 0 0 0 0 0 0 0 0 0 0 0 0 0 0 0 0 0 0 0 0 0 0 0 0 0 0 0 0 0
0 0 0 0 0 0 0 0 0 0 0 0 0 0 0 0 0 0 0 0 0 0 0 0 0 0 0 0 0 0 0 0 0 0 0 0 0 0 0 0 0 0 0
0 0 0 0 0 0 0 0 0 0 0 0 0 0 0 0 0 0 0 0 0 0 0 0 0 0 0 0 0 0 0 0 0 0 0 0 0 0 0 0 0 0 0
0 0 0 0 0 0 0 0 0 0 0 0 0 0 0 0 0 0 0 0 0 0 0 0 0 0 0 0 0 0 0 0 0 0 0 0 0 0 0 0 0 0 0
0 0 0 0 0 0 0 0 0 0 0 0 0 0 0 0 0 0 0 0 0 0 0 0 0 0 0 0 0 0 0 0 0 0 0 0 0 0 0 0 0 0 0
0 0 0 0 0 0 0 0 0 0 0 0 0 0 0 0 0 0 0 0 0 0 0 0 0 0 0 0 0 0 0 0 0 0 0 0 0 0 0 0 0 0 0
0 0 0 0 0 0 0 0 0 0 0 0 0 0 0 0 0 0 0 0 0 0 0 0 0 0 0 0 0 0 0 0 0 0 0 0 0 0 0 0 0 0 0
0 0 0 0 0 0 0 0 0 0 0 0 0 0 0 0 0 0 0 0 0 0 0 0 0 0 0 0 0 0 0 0 0 0 0 0 0 0 0 0 0 0 0
0 0 0 0 0 0 0 0 0 0 0 0 0 0 0 0 0 0 0 0 0 0 0 0 0 0 0 0 0 0 0 0 0 0 0 0 0 0 0 0 0 0 0
0 0 0 0 0 1 0 0 0 0 0 0 0 0 0 0 0 0 0 0 0 0 0 0 0 0 0 0 0 0 0 0 0 0 0 0 0 0 0 0 0 0 0
0 0 0 0 0 0 0 0 0 0 0 0 0 0 0 0 0 0 0 0 0 0 0 0 0 0 0 0 0 0 0 0 0 0 0 0 0 0 0 0 0 0 0
0 0 0 0 0 0 0 0 0 0 0 0 0 0 0 0 0 0 0 0 0 0 0 0 0 0 0 0 0 0 0 0 0 0 0 0 0 0 0 0 0 0 0
0 0 0 0 0 0 0 0 0 0 0 0 0 0 0 0 0 0 0 0 0 0 0 0 0 0 0 0 0 0 0 0 0 0 0 0 0 0 0 0 0 0 0
0 0 0 0 0 0 0 0 0 0 0 0 0 0 0 0 0 0 0 0 0 0 0 0 0 0 0 0 0 0 0 0 0 0 0 0 0 0 0 0 0 0 0
0 0 0 0 0 0 0 0 0 0 0 0 0 0 0 0 0 0 0 0 0 0 0 0 0 0 0 0 0 0 0 0 0 0 0 0 0 0 0 0 0 0 0
0 0 0 0 0 0 0 0 0 0 0 0 0 0 0 0 0 0 0 0 0 0 0 0 0 0 0 0 0 0 0 0 0 0 0 0 0 0 0 0 0 0 0
0 0 0 0 0 0 0 0 0 0 0 0 0 0 0 0 0 0 0 0 0 0 0 0 0 0 0 0 0 0 0 0 0 0 0 0 0 0 0 0 0 0 0
0 0 0 0 0 0 0 0 0 0 0 0 0 0 0 0 0 0 0 0 0 0 0 0 0 0 0 0 0 0 0 0 0 0 0 0 0 0 0 0 0 0 0
0 0 0 0 0 0 0 0 0 0 0 0 0 0 0 0 0 0 0 0 0 0 0 0 0 0 0 0 0 0 0 0 0 0 0 0 0 0 0 0 0 0 0
0 0 0 0 0 0 0 0 0 0 0 0 0 0 0 0 0 0 0 0 0 0 0 0 0 0 0 0 0 0 0 0 0 0 0 0 0 0 0 0 0 0 0
0 0 0 0 0 0 0 0 0 0 0 0 0 0 0 0 0 0 0 0 0 0 0 0 0 0 0 0 0 0 0 0 0 0 0 0 0 0 0 0 0 0 0
0 0 0 0 0 0 0 0 0 0 0 0 0 0 0 0 0 0 0 0 0 0 0 0 0 0 0 0 0 0 0 0 0 0 0 0 0 0 0 0 0 0 0
0 0 0 0 0 0 0 0 0 0 0 0 0 0 0 0 0 0 0 0 0 0 0 0 0 0 0 0 0 0 0 0 0 0 0 0 0 0 0 0 0 0 0
0 0 0 0 0 0 0 0 0 0 0 0 0 0 0 0 0 0 0 0 0 0 0 0 0 0 0 0 0 0 0 0 0 0 0 0 0 0 0 0 0 0 0
Wind_Speed
2 2 1 1 1 1 1 0 1 2 2 1 1 1 1 1 1 1 0 2 2 2 3 3 3 3 4 4 4 4 4 5 5 5 5 6 6 7 7 8 8 8 7
2 2 2 1 1 1 0 1 1 1 1 1 1 1 1 1 1 1 1 1 2 2 3 4 4 4 5 5 4 4 5 5 6 6 6 6 7 8 8 8 8 8 7
2 2 2 1 1 1 1 1 1 1 1 1 1 1 1 1 1 1 1 1 1 1 3 3 4 5 5 5 5 5 5 5 6 6 6 6 7 8 8 8 8 8 8
3 2 2 2 1 1 1 1 1 1 1 1 1 1 1 1 1 1 1 1 1 1 1 3 4 5 6 6 6 6 5 6 6 7 6 7 7 8 8 8 8 7 8
3 2 2 1 2 2 2 1 1 1 1 1 1 1 1 1 1 1 1 1 1 2 2 1 2 4 5 6 6 7 6 7 7 7 7 7 7 7 8 8 8 8 8
3 3 2 2 2 1 2 2 1 1 1 0 0 1 1 2 2 2 2 1 1 2 2 2 2 2 3 5 6 7 8 8 7 7 7 8 7 7 7 8 8 8 9
4 3 2 2 2 2 2 2 1 1 0 0 1 1 2 2 2 2 2 2 1 2 2 2 2 2 2 3 5 7 8 9 8 8 8 8 8 7 8 9 8 9 8
4 3 4 3 3 2 3 2 2 1 0 0 1 1 2 2 3 2 2 2 2 1 1 2 2 2 2 2 3 6 8 9 9 9 8 8 8 8 8 9 9 9 10
4 4 4 4 3 3 3 3 3 2 1 1 1 2 2 2 1 2 2 2 2 2 2 2 2 3 3 3 3 4 7 8 9 9 9 8 8 8 9 9 9 10 10
5 5 5 5 4 3 3 3 3 2 3 2 1 1 2 2 3 2 2 2 2 3 3 2 3 3 3 3 4 5 7 8 9 9 9 9 9 9 10 10 10 10 10
5 5 5 4 4 4 4 4 3 3 3 3 2 1 2 2 3 4 3 2 2 2 3 3 3 3 3 4 4 5 7 8 9 9 9 9 10 10 10 10 10 11 10
4 5 5 5 5 4 4 4 4 4 3 3 3 2 2 2 2 3 4 4 3 2 3 3 3 3 3 4 4 6 7 8 8 9 10 9 10 10 11 11 11 10 9
4 5 5 5 5 4 4 4 4 4 4 4 4 3 3 3 3 3 4 4 4 3 3 3 3 3 3 4 4 7 7 8 8 9 9 9 10 10 10 11 11 9 9
4 5 5 5 5 5 4 4 4 4 4 4 4 4 3 3 2 3 3 3 4 3 3 3 2 3 3 4 4 7 6 7 8 9 8 9 9 9 10 10 9 9 10
4 5 5 5 5 5 5 5 4 4 4 4 4 4 3 3 2 3 3 3 4 4 4 3 2 2 3 4 4 5 5 6 8 8 8 8 8 9 9 10 9 9 9
4 5 5 5 5 5 5 4 4 4 4 4 3 4 4 3 2 3 3 3 4 5 4 3 3 3 4 4 5 5 5 7 7 7 8 8 8 8 8 8 9 9 9
5 5 5 4 5 5 5 5 4 4 5 4 4 4 4 4 3 3 3 3 4 4 6 4 4 4 5 5 4 4 5 5 4 5 7 7 7 7 8 8 9 9 9
5 5 5 4 5 5 5 5 5 5 5 5 4 4 4 3 4 3 3 4 4 4 5 6 4 4 5 5 5 5 4 4 4 5 6 7 8 7 8 8 9 9 9
5 4 4 4 5 5 5 5 5 5 5 4 4 4 4 4 4 3 4 4 3 3 4 5 5 4 4 4 5 4 5 4 4 4 6 7 8 8 8 8 9 9 9
5 5 5 4 4 5 5 5 5 5 4 4 4 4 4 5 5 4 4 4 3 4 4 4 4 4 4 4 4 4 4 4 4 4 4 5 6 7 8 8 9 9 9
4 4 4 4 4 4 4 5 4 4 4 4 4 4 4 5 5 5 4 4 4 4 4 4 4 4 3 3 3 3 4 5 5 3 4 4 4 4 4 6 7 8 8
4 4 4 4 4 3 4 5 4 4 4 4 4 4 4 5 6 7 7 7 6 5 5 4 4 5 5 4 4 4 4 5 4 2 4 5 4 4 4 4 6 7 8
4 4 4 4 4 3 4 5 5 4 4 4 4 4 3 4 5 5 5 6 6 7 7 6 6 6 6 5 5 5 5 5 5 4 4 5 4 5 5 5 7 8 8
4 4 4 4 3 3 5 5 5 4 3 4 4 4 5 4 4 4 4 4 5 5 6 6 6 6 6 5 5 5 6 6 6 4 3 5 5 5 5 5 5 7 8
4 4 4 4 4 4 5 5 5 3 3 4 4 4 5 4 4 4 4 4 5 4 4 5 6 6 6 7 6 4 4 4 5 4 2 4 4 5 5 5 4 6 7
5 4 4 4 4 4 5 5 5 3 4 3 3 4 5 5 5 5 5 5 5 4 3 3 4 5 5 5 6 5 4 4 4 4 2 3 4 4 4 4 4 4 5
Wind_Direction
156 147 139 126 126 121 152 194 192 173 177 184 201 220 232 243 243 258 40 46 346 331 328 322 326 324 322 317 307 305 305 304 307 306 310 312 311 311 308 305 309 308 308
163 162 158 150 152 146 182 223 208 196 213 206 211 230 247 265 260 249 275 42 24 340 331 329 324 322 316 311 308 305 308 306 299 299 297 303 308 305 301 299 301 302 302
171 169 166 166 163 169 189 207 182 202 211 207 213 244 266 270 273 278 290 308 322 6 337 328 325 326 318 314 310 307 307 304 302 297 292 292 296 301 299 291 295 297 294
177 175 177 174 171 181 185 184 184 198 201 227 252 277 284 283 289 287 284 301 306 309 334 338 325 323 322 318 315 316 318 311 302 296 291 290 290 294 299 292 285 292 290
188 188 180 175 179 181 183 184 186 208 214 222 267 294 293 273 271 267 253 282 305 305 301 339 337 332 325 321 318 318 317 310 308 307 300 299 295 295 297 301 289 288 288
183 182 171 171 178 184 182 184 172 179 212 220 255 284 276 262 254 261 266 272 284 288 287 290 291 319 329 329 327 320 315 308 305 303 298 295 293 295 299 303 303 292 290
180 183 175 176 184 185 191 186 176 167 167 288 245 249 240 235 244 262 262 264 267 283 280 284 288 297 301 319 323 320 313 308 304 304 301 297 291 289 292 296 302 301 292
181 185 185 186 186 185 185 181 177 200 195 250 263 256 240 216 204 246 250 264 273 267 274 288 293 296 306 307 321 315 312 312 307 302 303 305 299 293 291 293 299 304 294
187 187 190 191 188 190 190 189 194 202 200 217 275 270 256 254 281 202 232 256 272 286 287 290 290 291 298 301 302 311 311 307 309 303 302 304 305 301 295 296 298 300 301
195 193 192 193 190 194 194 192 196 204 198 201 220 265 289 305 276 261 217 241 273 279 282 284 281 286 289 294 300 309 312 307 302 302 301 300 300 299 297 297 298 300 298
197 197 195 195 193 195 197 193 191 200 205 208 209 221 245 265 270 268 271 269 266 270 279 278 277 280 284 289 292 307 307 303 300 300 300 299 300 299 297 298 298 299 295
193 196 197 198 199 198 195 198 194 199 204 208 212 215 228 240 246 257 268 276 281 286 284 275 270 275 279 284 291 309 304 302 301 302 299 297 297 298 298 298 300 299 299
195 196 197 200 200 200 198 198 198 202 204 205 211 217 225 242 254 260 266 277 281 288 278 263 267 271 279 286 291 303 294 298 300 304 304 299 295 296 298 298 301 300 301
198 198 199 201 199 198 197 196 199 201 206 209 214 219 228 235 239 250 257 266 273 272 267 271 279 275 281 285 300 294 287 291 295 300 303 305 303 299 300 300 299 303 302
193 195 199 199 197 197 197 194 200 201 205 212 217 220 229 238 240 245 250 255 262 271 274 277 280 284 296 292 299 288 287 296 296 296 298 300 302 301 301 302 303 303 303
189 193 199 200 196 195 195 198 202 203 205 211 218 223 229 233 232 235 241 249 253 262 270 282 284 297 305 298 307 300 298 300 293 299 302 301 300 302 303 303 304 301 300
187 193 197 200 199 197 195 199 204 203 208 211 215 224 231 231 233 232 236 242 245 252 262 276 284 293 293 299 305 306 302 296 294 298 304 308 309 309 307 306 304 299 298
187 191 194 199 201 199 199 200 201 205 208 212 217 222 230 231 234 236 238 245 248 252 260 273 280 286 288 298 304 306 307 305 302 304 300 301 302 303 302 301 303 302 299
184 185 192 199 203 200 200 202 202 206 212 216 218 222 227 229 236 238 242 248 254 260 263 268 278 284 284 293 303 303 302 302 303 302 295 293 296 298 298 298 301 302 301
187 187 195 201 203 202 200 198 201 207 213 219 226 230 231 234 240 242 244 249 253 257 259 263 269 277 280 293 296 297 298 302 302 303 300 296 292 288 288 294 296 297 298
192 191 195 198 199 200 200 199 201 207 211 219 227 233 237 246 253 250 248 248 247 250 254 257 263 271 275 287 288 293 292 300 297 298 302 295 291 285 284 284 287 294 298
189 189 195 198 201 206 201 207 210 208 213 220 229 238 240 241 244 248 252 254 252 249 250 254 260 263 272 277 280 282 288 296 293 304 302 294 291 288 290 289 301 301 298
187 190 196 200 208 204 203 209 213 215 219 227 234 240 243 244 245 247 247 248 249 256 258 257 257 261 269 273 275 275 276 283 283 302 301 286 289 288 292 290 295 297 301
192 196 197 203 210 208 210 212 209 217 227 235 239 243 245 245 243 249 250 249 253 252 251 255 259 265 272 276 272 274 279 282 283 276 280 279 290 291 293 284 285 294 300
197 198 199 204 211 212 208 212 215 215 226 237 241 244 244 247 242 248 251 252 259 261 255 258 268 270 275 278 277 273 270 275 280 278 271 275 286 294 287 278 286 291 292
201 194 200 206 210 216 210 214 223 222 229 237 241 241 242 250 243 243 248 247 251 260 263 261 258 256 262 261 260 260 263 268 278 275 261 268 278 295 288 276 294 301 293